Volver al catálogo

BEIDOU 3M14

ActivoNavegaciónMEO
NORAD 43623·PAYLOAD·🇨🇳 China

Lanzado Sep 19, 2018 desde Xichang Satellite Launch Center

Loading…

Próximos Pases (próximas 24 horas)

TLE

ActualizadoSource: CelesTrak SupGP

Época: Sep 12, 2026, 00:00 UTC

1 43623C 18072B   26255.00000000  .00000000  00000+0  00000+0 0  2559
2 43623  56.7067  59.7935 0003438  24.1520  75.7474  1.86231220    11

Sigue BEIDOU 3M14 en tiempo real con AllMySat

Download on the App Store